Other Public Products
Issued by NWS Grand Forks, ND

Home | Current Version | Previous Version | Graphics & Text | Print | Product List | Glossary On
Versions: 1 2 3 4 5 6 7 8 9 10 11 12 13 14 15 16 17 18 19 20 21 22 23 24 25 26 27 28 29 30 31 32 33 34 35 36 37 38 39 40 41 42 43 44 45 46 47 48 49 50
000
FPUS83 KFGF 262031
OPUFGF
PRAIRIE TO PINES WEATHER ROUNDUP
NATIONAL WEATHER SERVICE EASTERN NORTH DAKOTA/GRAND FORKS ND
300 PM CDT THU APR 26 2018

 **SATELLITE DATA USED TO AUGMENT SKY COVER AT AUTOMATED STATIONS**
 *****  WEATHER ACROSS EASTERN NORTH DAKOTA  *****

CITY           SKY/WX    TMP DP  RH WIND       PRES   REMARKS
GRAND FORKS    FAIR      57  33  40 N17G28    30.01F
GRND FORKS AFB FAIR      60  27  28 N17G25    30.01F
GRND FORKS NWS   N/A     58  32  37 N18       29.98F
BUXTON           N/A     43  37  78 N12G28      N/A
DEVILS LAKE    FAIR      60  26  27 NW17G25   30.01F
FARGO          FAIR      58  28  32 N24G35    30.03F
WAHPETON ARPT  FAIR      55  27  33 N24G32    30.03F
$$

 *****  WEATHER ACROSS CENTRAL AND WESTERN NORTH DAKOTA  *****

CITY           SKY/WX    TMP DP  RH WIND       PRES   REMARKS
JAMESTOWN      FAIR      62  25  24 NW17G28   30.04F
BISMARCK       FAIR      65  22  19 N16G26    30.09F
MINOT          FAIR      67  23  19 W21G30    30.02F
MINOT AFB      FAIR      66  25  21 W18G30    29.99F
GARRISON         N/A     63  24  22 W16G23    30.06F
WILLISTON      FAIR      67  29  24 W18G28    30.07F
DICKINSON      FAIR      64  26  23 NW15G28   30.10F
HETTINGER      FAIR      62  27  26 W10G28    30.15F
$$

 *****  OTHER OBSERVATIONS NORTHEAST NORTH DAKOTA  *****

CITY           SKY/WX    TMP DP  RH WIND       PRES   REMARKS
WALHALLA       FAIR      61  28  29 NW13G22   29.98F
LANGDON        MOCLDY    59  28  31 NW14G25   29.98F
CAVALIER         N/A     59  30  33 VRB7      29.98F
GRAFTON        FAIR      59  30  33 N13       30.02F
CANDO          FAIR      64  21  19 NW17      30.01F
FORT TOTTEN      N/A     61  27  27 NW6       29.95S
ROLLA          FAIR      59  27  29 W20G25    29.98F
RUGBY          FAIR      64  27  24 W25       29.99F
 ***** THE ABOVE OBSERVATIONS ARE NON NWS ARE NOT QUALITY
        CONTROLLED AND MAY MIS-REPORT RAIN FOR SNOW...
$$

 *****  OTHER OBSERVATIONS SOUTHEAST NORTH DAKOTA *****

CITY           SKY/WX    TMP DP  RH WIND       PRES   REMARKS
COOPERSTOWN    FAIR      59  32  36 NW20G25   30.03F
VALLEY CITY    FAIR      59  28  31 NW17      30.06F
OAKES            N/A     61  30  31 N16G28    30.06F
GWINNER          N/A     59  30  33 NW14G26   30.05F
SHEYENNE NWR     N/A     59  28  31 N17       29.95S
BUFFALO          N/A     57  29  34 N17G29      N/A
WYNDMERE       NOT AVBL
 ***** THE ABOVE OBSERVATIONS ARE NON NWS ARE NOT QUALITY
       CONTROLLED AND MAY MIS-REPORT RAIN FOR SNOW...
$$

  *****  WEATHER ACROSS NORTHERN MINNESOTA  *****

CITY           SKY/WX    TMP DP  RH WIND       PRES   REMARKS
FLAG ISLAND    FAIR      45  25  45 NW14      29.95S
WARROAD        FAIR      54  25  32 NW9G18    29.96F
ROSEAU         FAIR      54  27  35 NW16      29.97S
HALLOCK        FAIR      61  23  23 NW18G24   29.99F
THF RVR FALLS  FAIR      53  23  31 NW22G29   30.00
HALSTAD        NOT AVBL
FOSSTON        FAIR      54  25  32 W18G24    30.00S
BAUDETTE       FAIR      52  27  38 NW16G22   29.95F
WASKISH        CLOUDY    52  28  40 NW13      29.94F
CROOKSTON      FAIR      57  30  35 N20G26    30.01F
$$
  *****  WEATHER ACROSS CENTRAL AND WEST MINNESOTA  *****

CITY           SKY/WX    TMP DP  RH WIND       PRES   REMARKS
BEMIDJI        FAIR      56  26  31 NW24G32   29.96R
PARK RAPIDS    FAIR      57  25  29 NW21G30   29.94S
WADENA         FAIR      55  30  38 W18       29.95S
DETROIT LAKES  FAIR      54  28  37 N17G29    30.01R
MOORHEAD       FAIR      57  27  30 NW24G31   30.03F
FERGUS FALLS   FAIR      55  28  35 N25G33    29.98S
ELBOW LAKE     FAIR      53  29  40 W20G26    30.01S
MORRIS MN      FAIR      55  30  38 N25G36    30.00F
STAPLES        FAIR      57  25  28 N10       29.94S
WHEATON        FAIR      57  27  30 N24G37    30.04S
$$
  *****  WEATHER ELSEWHERE ACROSS MINNESOTA  *****

CITY           SKY/WX    TMP DP  RH WIND       PRES   REMARKS
DULUTH         FAIR      54  31  41 N17G26    29.87R
INTRNTL FALLS  FAIR      54  23  30 NW16G23   29.91S
ELY            PTSUNNY   52  27  37 NW13G20   29.88S
CLOQUET        FAIR      57  25  28 NW9G22    29.87S
BRAINERD       FAIR      58  28  32 N16G24    29.93S
HIBBING        FAIR      53  30  41 NW17      29.89S
ALEXANDRIA     FAIR      58  26  29 N17G29    29.98S
SAINT CLOUD    FAIR      62  32  32 N13G21    29.90R
MINNEAPOLIS    FAIR      66  34  30 N14G23    29.86S
$$

  *****  WEATHER ACROSS SOUTH DAKOTA  *****

CITY           SKY/WX    TMP DP  RH WIND       PRES   REMARKS
SIOUX FALLS    FAIR      60  30  32 N20G35    30.04S
BROOKINGS      FAIR      56  32  40 NW22G31   30.04R
WATERTOWN      FAIR      57  30  35 N26G32    30.05S
HURON          FAIR      61  29  29 N21G33    30.08F
SISSETON         N/A     61  31  32 N29G38    30.03S
ABERDEEN       FAIR      63  27  25 NW18G30   30.09S
MITCHELL       FAIR      62  30  29 N28G39    30.10S
PIERRE         FAIR      64  27  24 NW23G30   30.12F
MOBRIDGE       FAIR      65  29  25 NW16G22   30.08F
RAPID CITY     FAIR      62  29  28 NW17      30.18F
$$

  *****  SOME WEATHER IN NEARBY STATES *****

CITY           SKY/WX    TMP DP  RH WIND       PRES   REMARKS
GLASGOW MT     FAIR      68  28  22 W13G23    30.11F
GREAT FALLS MT FAIR      68  24  19 CALM      30.15F
CHEYENNE WY    FAIR      50  24  36 N14G20    30.29F
SCOTTSBLUFF NE FAIR      62  30  29 N16G29    30.24F
OMAHA NE       PTSUNNY   69  41  36 W10G21    29.94F
DES MOINES IA  PTSUNNY   71  30  21 W15G23    29.90F
DAVENPORT IA   FAIR      69  26  20 W14G24    29.90F
CHICAGO IL     CLOUDY    65  28  24 VRB7      29.88F
EAU CLAIRE WI  PTSUNNY   68  36  30 W15       29.79S
LA CROSSE WI   FAIR      70  32  24 SW17G24   29.82F
$$

  *****  SOME NATIONAL WEATHER *****

CITY           SKY/WX    TMP DP  RH WIND       PRES   REMARKS
LA GUARDIA NY  FAIR      68  40  35 NW13G21   29.74F
RALEIGH NC     CLOUDY    72  56  57 SW6       29.84F
ATLANTA GA     LGT RAIN  58  56  93 E13G21    29.82F
NEW ORLEANS LA FAIR      73  55  53 N12       29.89F
OKLAHOMA CITY  PTSUNNY   66  40  38 W3        29.98F
ALBUQUERQUE NM FAIR      78  13   8 NW12G33   30.05F
SALT LAKE CITY FAIR      74  28  18 N8        30.14F
LOS ANGELES CA FAIR      64  51  62 W12       30.03F
BOISE ID       FAIR      77  31  18 S7G21     30.10F
SEATTLE WA     FAIR      75  45  34 N8        29.99F
$$

*** WEATHER ACROSS MANITOBA...SASKATCHEWAN AND ONTARIO ***
                ***ONTARIO***

CITY           SKY/WX    TMP DP  RH WIND       PRES   REMARKS
GERALDTON      SNOWSHWR  36  30  80 N12G21    29.82R
THUNDER BAY    PTSUNNY   48  34  57 NW15G23   29.85R
SIOUX LOOKOUT  PTSUNNY   41  27  56 N10G20    29.92S
TORONTO        PTSUNNY   59  36  41 W14       29.83S
BIG TROUT LK   SUNNY     34   9  35 NW8       29.95F
PICKLE LAKE    CLOUDY    32  23  69 N3        29.93R
DRYDEN         MOSUNNY   45  27  49 NW13G18   29.92S
KENORA         MOSUNNY   48  25  40 NW12G18   29.94F
$$
                *** MANITOBA***

CITY           SKY/WX    TMP DP  RH WIND       PRES   REMARKS
BRANDON        PTSUNNY   63  27  25 W17G31    29.92F
DAUPHIN        MOSUNNY   64  28  25 W25G33    29.81F
ISLAND LAKE    PTSUNNY   36  25  64 E7        29.92F
PILOT MOUND      N/A     59  23  25 W14G23      N/A
THE PAS        MOSUNNY   55  30  38 NW12      29.73F
THOMPSON       LGT SNOW  30  27  86 S3        29.87R VSB 5/8
WINNIPEG       MOSUNNY   55  27  33 NW16G23   29.97F
LYNN LAKE      LGT SNOW  34  32  93 E8        29.80R
CHURCHILL      MOSUNNY   18  10  73 NE9       30.04R WCI   6
GILLAM         PTSUNNY   30  12  47 N8        29.93F WCI  23
$$
                ***SASKATCHEWAN***

CITY           SKY/WX    TMP DP  RH WIND       PRES   REMARKS
ESTEVAN        MOSUNNY   66  25  20 W28G35    29.99F
KINDERSLEY     MOSUNNY   66  30  26 NW10G25   30.04S
LLOYDMINSTER   MOSUNNY   64  28  25 N18G28    30.03S
PRINCE ALBERT  MOSUNNY   64  27  24 NW26G38   29.93R
REGINA         SUNNY     70  28  21 W26G36    29.97F
YORKTON        SUNNY     66  28  24 NW25G33   29.87S



USA.gov is the U.S. government's official web portal to all federal, state and local government web resources and services.